Location: Krakow
(50.0830°N, 19.9170°E)
Time: 09:42:36
(UTC+01:00)

Transit 2A - Pass Details

Date: 14 February 2023
Orbit: 591 x 964 km, 66.7° (Epoch: 21 March)

Event Time Altitude Azimuth Distance (km) Brightness Sun altitude
Rises 17:59:15 0° 296° (WNW) 3,288 10.3 -10.6°
Reaches altitude 10° 18:02:39 10° 318° (NW) 2,439 9.1 -11.2°
Maximum altitude 18:06:00 16° 355° (N) 2,132 8.3 -11.7°
Drops below altitude 10° 18:09:30 10° 31° (NNE) 2,580 8.4 -12.3°
Enters shadow 18:10:59 - 41° (NE) 2,934 8.6 -12.5°
Sets 18:13:16 0° 53° (NE) 3,582 - -12.9°
